EW4120 Weather Reports


time (UTC)temp
C
wind
direction
speed
KPH
gust
KPH
rain 1hr
cm
rain 24hr
cm
rain mn
cm
humidity
%
barometer
mb
20260506002538 21 0.0 1.6 0.00 0.00 0.00 52 1013.7
20260506001517 22 0.0 1.6 0.00 0.00 0.00 50 1013.7
20260506000638 22 0.0 3.2 0.00 0.00 0.00 49 1013.8
20260505235538 22 0.0 1.6 0.00 0.00 0.00 48 1013.6
20260505234518 23 293 1.6 8.0 0.00 0.00 0.00 47 1013.4
20260505233517 23 315 1.6 6.4 0.00 0.00 0.00 46 1013.5
20260505232557 23 0.0 3.2 0.00 0.00 0.00 45 1013.2
20260505231517 24 293 1.6 9.7 0.00 0.00 0.00 43 1013.3
20260505230517 25 315 1.6 9.7 0.00 0.00 0.00 41 1013.2
20260505225517 26 293 1.6 16.1 0.00 0.00 0.00 41 1013.3
20260505224517 26 293 3.2 12.9 0.00 0.00 0.00 41 1013.4
20260505223517 26 293 1.6 4.8 0.00 0.00 0.00 41 1013.5
20260505222537 26 315 3.2 9.7 0.00 0.00 0.00 40 1013.5
20260505221517 26 293 1.6 14.5 0.00 0.00 0.00 40 1013.7
20260505220537 26 293 1.6 9.7 0.00 0.00 0.00 41 1013.8
20260505215517 26 293 3.2 19.3 0.00 0.00 0.00 39 1013.7
20260505214557 27 315 1.6 8.0 0.00 0.00 0.00 39 1013.8
20260505213517 27 293 3.2 11.3 0.00 0.00 0.00 39 1013.8
20260505212517 27 315 3.2 9.7 0.00 0.00 0.00 38 1013.8
20260505211517 27 315 3.2 11.3 0.00 0.00 0.00 39 1013.9
20260505210537 27 293 3.2 11.3 0.00 0.00 0.00 38 1014.0
20260505204537 27 293 3.2 19.3 0.00 0.00 0.00 38 1014.0
20260505203658 27 113 1.6 8.0 0.00 0.00 0.00 38 1014.1
20260505202517 27 315 3.2 9.7 0.00 0.00 0.00 39 1014.1
20260505201537 27 315 4.8 11.3 0.00 0.00 0.00 40 1014.3
20260505200517 27 293 4.8 12.9 0.00 0.00 0.00 39 1014.4
20260505195517 27 90 1.6 9.7 0.00 0.00 0.00 38 1014.5
20260505194537 27 315 3.2 14.5 0.00 0.00 0.00 38 1014.9
20260505193517 27 270 3.2 9.7 0.00 0.00 0.00 42 1014.9
20260505192517 27 293 3.2 16.1 0.00 0.00 0.00 39 1015.0
20260505191537 27 293 3.2 17.7 0.00 0.00 0.00 45 1015.1
20260505190517 26 248 4.8 16.1 0.00 0.00 0.00 40 1015.4
20260505185517 27 113 3.2 9.7 0.00 0.00 0.00 41 1015.4
20260505184537 27 293 3.2 9.7 0.00 0.00 0.00 41 1015.7
20260505183517 27 293 1.6 9.7 0.00 0.00 0.00 42 1015.8
20260505182657 26 45 3.2 9.7 0.00 0.00 0.00 46 1015.9
20260505181517 26 90 1.6 8.0 0.00 0.00 0.00 44 1015.8
20260505180517 26 315 3.2 12.9 0.00 0.00 0.00 45 1016.0
20260505175517 26 270 3.2 9.7 0.00 0.00 0.00 45 1016.1
20260505174517 25 293 1.6 9.7 0.00 0.00 0.00 45 1016.0
20260505173517 25 315 3.2 16.1 0.00 0.00 0.00 46 1016.2
20260505172637 26 248 1.6 6.4 0.00 0.00 0.00 47 1016.4
20260505171517 25 90 1.6 4.8 0.00 0.00 0.00 47 1016.3
20260505170617 25 270 3.2 9.7 0.00 0.00 0.00 45 1016.3
20260505165537 25 315 3.2 8.0 0.00 0.00 0.00 45 1016.3
20260505164537 25 293 3.2 9.7 0.00 0.00 0.00 51 1016.5
20260505163517 25 23 3.2 14.5 0.00 0.00 0.00 49 1016.6
20260505162517 25 315 1.6 8.0 0.00 0.00 0.00 49 1016.6
20260505161517 24 113 3.2 11.3 0.00 0.00 0.00 49 1016.7
20260505160537 24 293 1.6 11.3 0.00 0.00 0.00 50 1016.8
20260505151517 22 0.0 4.8 0.00 0.00 0.00 59 1017.0
20260505150517 22 315 1.6 4.8 0.00 0.00 0.00 57 1017.1
20260505140537 20 315 1.6 9.7 0.00 0.00 0.00 68 1017.0
20260505124536 15 0.0 4.8 0.00 0.00 0.00 81 1016.8
20260505123557 15 0.0 6.4 0.00 0.00 0.00 83 1016.7
20260505122516 14 315 1.6 9.7 0.00 0.00 0.00 87 1016.7
20260505121536 12 0.0 6.4 0.00 0.00 0.00 92 1016.6
20260505120516 11 0.0 3.2 0.00 0.00 0.00 96 1016.6
20260505115516 10 0.0 0.0 0.00 0.00 0.00 95 1016.6
20260505114516 9 0.0 0.0 0.00 0.00 0.00 95 1016.6
20260505113516 8 0.0 0.0 0.00 0.00 0.00 95 1016.4
20260505112616 8 0.0 0.0 0.00 0.00 0.00 94 1016.4
20260505111516 7 0.0 0.0 0.00 0.00 0.00 94 1016.2
20260505110516 7 0.0 3.2 0.00 0.00 0.00 93 1016.4
20260505101556 7 0.0 0.0 0.00 0.00 0.00 91 1016.2
20260505100536 7 0.0 0.0 0.00 0.00 0.00 91 1016.1
20260505095556 7 0.0 0.0 0.00 0.00 0.00 90 1016.1
20260505094556 8 0.0 0.0 0.00 0.00 0.00 90 1016.1
20260505093516 8 0.0 0.0 0.00 0.00 0.00 89 1016.0
20260505092536 8 0.0 0.0 0.00 0.00 0.00 90 1015.9
20260505091616 8 0.0 0.0 0.00 0.00 0.00 88 1015.8
20260505090637 9 0.0 0.0 0.00 0.00 0.00 88 1015.8
20260505085516 9 0.0 0.0 0.00 0.00 0.00 88 1015.8
20260505084536 9 0.0 0.0 0.00 0.00 0.00 88 1015.5
20260505083516 10 0.0 0.0 0.00 0.00 0.00 86 1015.4
20260505082516 10 0.0 0.0 0.00 0.00 0.00 85 1015.4
20260505081516 10 0.0 0.0 0.00 0.00 0.00 84 1015.3
20260505080556 11 0.0 0.0 0.00 0.00 0.00 82 1015.4
20260505075536 11 0.0 0.0 0.00 0.00 0.00 80 1015.3
20260505074556 12 0.0 0.0 0.00 0.00 0.00 79 1015.3
20260505073536 12 0.0 0.0 0.00 0.00 0.00 77 1015.3
20260505072516 13 0.0 1.6 0.00 0.00 0.00 76 1015.2
20260505071516 13 0.0 1.6 0.00 0.00 0.00 75 1015.3
20260505070516 13 0.0 1.6 0.00 0.00 0.00 75 1015.2
20260505065516 13 0.0 0.0 0.00 0.00 0.00 74 1015.1
20260505064516 13 0.0 1.6 0.00 0.00 0.00 75 1015.1
20260505063516 12 0.0 4.8 0.00 0.00 0.00 76 1015.2
20260505062516 12 0.0 1.6 0.00 0.00 0.00 78 1015.0
20260505061556 11 0.0 0.0 0.00 0.00 0.00 78 1015.0
20260505060556 11 0.0 0.0 0.00 0.00 0.00 79 1014.9
20260505055556 10 0.0 0.0 0.00 0.00 0.00 79 1014.7
20260505054518 10 0.0 0.0 0.00 0.00 0.00 79 1014.8
20260505053538 10 0.0 0.0 0.00 0.00 0.00 78 1014.8
20260505052516 11 0.0 0.0 0.00 0.00 0.00 77 1014.9
20260505051518 11 0.0 0.0 0.00 0.00 0.00 76 1014.9
20260505050636 11 0.0 0.0 0.00 0.00 0.00 77 1015.0
20260505041517 11 0.0 0.0 0.00 0.00 0.00 73 1015.0
20260505040517 11 0.0 0.0 0.00 0.00 0.00 73 1014.9
20260505035516 11 0.0 0.0 0.00 0.00 0.00 72 1015.0
20260505034536 11 0.0 0.0 0.00 0.00 0.00 71 1015.0
20260505033516 12 0.0 0.0 0.00 0.00 0.00 69 1015.0
20260505032516 12 0.0 0.0 0.00 0.00 0.00 69 1015.0
20260505031516 13 0.0 0.0 0.00 0.00 0.00 67 1015.1
20260505030536 13 0.0 0.0 0.00 0.00 0.00 64 1015.1
20260505025536 14 0.0 0.0 0.00 0.00 0.00 63 1015.1
20260505024536 15 0.0 0.0 0.00 0.00 0.00 62 1015.1
20260505023616 14 0.0 0.0 0.00 0.00 0.00 63 1015.0
20260505022516 14 0.0 0.0 0.00 0.00 0.00 63 1014.8
20260505021516 14 0.0 0.0 0.00 0.00 0.00 65 1014.7
20260505020516 13 0.0 1.6 0.00 0.00 0.00 65 1014.6
20260505015616 13 0.0 0.0 0.00 0.00 0.00 70 1014.4
20260505014516 13 0.0 0.0 0.00 0.00 0.00 70 1014.4
20260505013516 13 0.0 0.0 0.00 0.00 0.00 69 1014.3
20260505012516 13 0.0 0.0 0.00 0.00 0.00 68 1014.1
20260505011516 14 0.0 0.0 0.00 0.00 0.00 66 1014.0
20260505010516 15 0.0 0.0 0.00 0.00 0.00 64 1013.9
20260505005618 15 0.0 0.0 0.00 0.00 0.00 61 1013.5
20260505004543 16 0.0 0.0 0.00 0.00 0.00 61 1013.5
20260505003517 17 0.0 0.0 0.00 0.00 0.00 59 1013.5